Tracking 18851 objects as of 25-Nov-2017
HD Live streaming from Space Station
objects crossing your sky now

H-2A R/B

Track H-2A R/B now!
10-day predictions


NORAD ID: 36105
Int'l Code: 2009-066B
Perigee: 512.2 km
Apogee: 551.8 km
Inclination: 97.3 °
Period: 95.1 minutes
Semi major axis: 6903 km
RCS: Unknown
Launch date: November 28, 2009
Source: Japan (JPN)
Launch site: TANEGASHIMA SPACE CENTER (TNSTA)

Note: This is a ROCKET BODY
aabbcc
Your satellite tracking list
Your tracking list is empty




NASA's NSSDC Master Catalog

Two Line Element Set (TLE):
1 36105U 09066B   17322.74700728 0.00001100  00000-0  60581-4 0    05
2 36105  97.3157 348.6554 0028660 163.5395 196.4604 15.13711924    02
Source of the keplerian elements: McCants